Terminal Aerodrome Forecast
Issued by NWS Blacksburg, VA

Current Version | Previous Version | Text Only | Print | Product List | Glossary Off
Versions: 1 2 3 4 5 6 7 8 9 10 11 12 13 14 15 16 17 18 19 20 21 22 23 24 25 26 27 28 29 30 31 32 33 34 35 36 37 38 39 40 41 42 43 44 45 46 47 48 49 50

000
FTUS41 KRNK 210601 AAA
TAFBLF
TAF AMD
KBLF 210601Z 2106/2206 27012G20KT P6SM BKN018 BKN045
      TEMPO 2109/2111 BKN015
     FM211500 27017G27KT P6SM SCT025 BKN050
     FM212300 26012KT P6SM BKN150=

USA.gov is the U.S. government's official web portal to all federal, state and local government web resources and services.